RH
96 101 100 101 101 99 98 99 100 100 100 99 96 95 97 99 100 97 94 91 84 79 76 69 65 66 66 66 68 69 68 67 70 72 69 70 76 83 88 93 94 89 83 85 90 91 90 86 80 75 72 72 70 63 56 52 50 50 50 49 49 48 47 46 45 43 41 39 36 31 28 25 24 23
79 87 92 97 100 100 98 97 99 100 100 101 100 99 99 100 101 99 94 85 81 84 86 79 75 75 75 75 75 75 74 72 74 74 71 70 76 86 93 96 97 92 83 82 86 89 91 91 88 84 79 77 76 74 70 63 57 55 55 54 53 51 50 48 46 45 43 39 36 32 29 27 26 25
76 74 73 79 86 91 92 90 94 98 100 101 101 101 100 100 100 100 99 92 81 81 84 83 83 85 87 89 88 83 79 77 76 75 72 70 76 89 97 98 98 95 86 81 81 85 89 93 93 91 89 85 82 81 80 75 69 63 61 60 58 55 53 52 49 46 44 40 37 34 31 29 28 27
93 86 75 69 67 73 79 81 84 88 92 96 98 101 102 102 101 100 101 97 86 83 85 84 84 86 90 95 96 89 83 80 78 76 72 70 76 88 96 96 96 94 88 81 81 84 87 92 95 95 95 94 91 88 86 84 80 74 69 65 62 59 57 55 52 49 45 42 39 36 34 32 31 29
100 97 91 81 68 63 66 70 75 78 80 85 89 92 95 98 101 101 102 100 93 91 92 89 86 86 87 90 90 88 85 81 79 76 73 70 71 80 91 97 97 95 92 84 81 85 89 91 94 96 97 97 97 94 90 89 87 83 77 71 66 63 61 59 56 53 49 45 42 40 38 36 35 33
101 98 98 96 85 71 63 61 66 70 72 76 78 82 87 90 94 96 98 98 96 96 96 93 91 91 92 91 89 89 86 83 83 82 78 73 69 72 83 93 97 98 98 93 85 83 85 87 90 92 94 95 96 96 93 90 88 86 83 79 74 70 66 63 60 58 55 51 49 47 45 43 41 40
99 97 98 100 97 89 77 64 60 62 66 70 73 80 88 90 90 90 93 95 93 93 96 95 92 92 96 97 96 96 94 92 91 87 83 82 77 73 75 83 91 97 99 98 94 87 82 81 81 83 86 90 92 94 94 92 88 86 84 83 81 77 72 69 65 62 60 58 57 55 54 52 50 48
91 95 98 99 99 99 93 78 65 58 59 63 66 73 82 87 88 89 94 96 93 92 93 93 92 91 93 96 98 100 99 99 98 93 89 88 86 82 79 78 85 95 98 98 97 94 88 83 77 73 74 78 85 89 91 92 90 86 84 83 83 81 78 75 71 67 65 63 62 61 60 59 57 55
86 89 94 98 100 99 97 92 81 68 59 57 60 63 67 74 79 83 88 91 89 89 87 84 83 85 85 87 91 96 98 100 100 98 94 89 87 88 87 81 80 87 94 95 94 94 94 92 87 79 73 72 77 82 84 86 89 88 84 83 83 83 81 78 76 73 70 68 67 65 64 63 62 61
85 84 86 93 101 102 99 98 96 87 74 62 57 58 59 62 66 70 74 76 77 80 80 74 71 74 74 73 77 83 91 98 100 100 100 96 90 86 87 85 80 81 84 84 86 92 98 100 97 93 87 81 78 78 78 80 83 86 84 81 80 81 81 80 78 77 75 74 72 70 69 67 65 63
78 80 79 82 90 96 97 99 100 100 92 77 63 56 56 59 62 64 66 68 69 72 75 71 65 64 64 63 65 69 78 90 97 100 101 98 92 87 86 85 84 85 86 83 85 93 99 101 100 99 96 92 86 81 79 79 81 83 82 79 78 78 78 79 79 78 78 77 75 73 71 67 63 59
66 72 76 78 82 86 92 95 97 100 101 94 80 65 57 57 60 63 65 67 68 69 71 70 64 60 60 61 60 61 68 74 77 83 89 91 92 93 92 91 91 93 95 94 93 95 97 96 97 100 99 97 94 90 86 84 85 84 81 78 76 75 75 76 77 78 77 77 75 71 67 63 58 55
60 63 69 73 77 83 88 90 92 95 98 99 93 79 69 61 57 58 62 65 66 67 68 70 66 61 60 60 57 55 54 52 53 64 77 82 85 91 95 95 95 95 96 97 98 96 94 91 91 96 100 100 99 98 94 90 89 88 86 82 78 76 75 75 77 78 77 75 72 68 64 60 56 53
58 58 62 64 67 72 78 81 84 86 88 91 91 87 85 77 63 56 56 58 60 64 65 66 67 63 58 56 53 46 44 49 58 65 69 73 80 90 95 92 92 94 95 96 96 96 97 94 90 95 100 100 100 100 98 96 94 94 92 88 83 80 78 79 80 79 78 75 71 67 63 60 56 52
57 57 58 59 61 64 67 71 75 78 81 83 84 85 86 82 72 62 57 53 53 59 62 59 61 62 57 53 50 43 43 56 70 72 70 73 82 88 88 86 86 91 95 97 97 97 100 100 97 99 101 100 100 100 100 100 99 99 97 92 88 86 84 84 83 81 78 74 70 66 62 59 55 49
58 58 56 56 58 59 62 67 71 74 75 76 77 78 77 73 68 61 58 57 56 58 59 56 56 55 54 54 52 44 38 47 68 84 85 80 78 79 80 84 90 94 98 101 100 97 99 102 101 101 100 99 100 101 101 101 100 99 99 97 93 91 89 87 85 82 77 72 68 64 60 55 50 43
55 57 57 55 55 56 58 63 69 72 74 76 77 78 78 73 64 55 49 51 56 60 60 58 54 51 53 57 56 49 43 41 54 77 88 83 77 77 80 87 97 100 100 102 100 97 99 101 101 100 100 100 101 102 101 101 100 99 100 100 99 96 93 90 87 82 76 71 66 62 57 51 46 41
70 69 67 62 58 56 56 58 63 69 75 80 80 80 81 75 65 58 50 45 50 59 61 59 54 52 57 62 62 59 57 49 43 58 82 91 88 86 88 95 101 102 100 101 101 99 99 100 101 100 100 101 101 101 101 100 100 100 100 101 100 100 98 93 88 81 75 70 65 59 54 50 46 43
92 88 85 78 70 64 60 58 60 65 72 79 82 82 82 78 71 67 60 54 56 59 60 58 56 55 58 64 67 66 64 58 49 56 79 94 96 93 92 95 98 99 100 101 100 100 99 100 101 100 100 102 101 100 100 101 100 100 100 100 100 101 99 93 86 79 73 68 63 58 53 49 45 42
100 97 93 89 86 82 75 67 65 67 71 78 85 86 84 82 80 76 72 73 74 72 65 57 54 56 60 64 70 71 68 64 58 57 65 74 81 85 85 85 88 92 98 100 100 100 101 100 100 100 101 102 99 97 99 101 101 101 100 100 100 100 97 89 82 76 69 64 59 54 48 43 37 33
101 99 95 89 90 93 90 82 78 76 75 79 88 93 91 87 82 77 81 87 87 84 78 68 62 64 69 74 79 78 74 70 65 61 58 59 69 80 82 80 80 85 93 100 101 101 100 100 100 100 101 99 95 96 100 101 101 101 100 100 100 98 91 83 76 70 63 57 49 41 34 29 24 21
99 102 98 91 88 89 90 88 85 82 80 82 87 93 97 94 83 78 86 94 92 89 88 83 78 75 75 81 86 82 75 68 62 59 58 62 77 89 87 80 82 88 95 99 101 100 99 100 100 101 102 99 93 96 101 101 100 101 100 99 96 90 82 75 68 60 51 40 31 23 18 16 15 14
96 99 98 95 92 89 87 86 85 87 89 88 88 92 97 95 85 82 89 95 97 96 91 88 87 84 80 79 80 78 71 61 57 58 58 65 85 99 96 91 92 94 96 98 100 100 98 100 101 101 101 100 97 98 101 100 101 100 96 92 85 76 69 62 52 41 29 20 15 13 12 13 13 12
97 97 96 96 94 92 92 90 87 92 96 92 89 92 94 91 87 88 93 95 97 98 92 88 90 92 93 88 80 77 71 60 55 54 50 60 85 101 101 99 96 92 94 99 102 100 99 101 102 101 100 100 100 100 100 100 101 96 87 77 64 52 46 40 29 20 15 12 13 14 14 14 14 13
96 94 94 94 92 93 98 95 89 91 94 93 93 93 92 93 95 97 98 97 99 100 98 95 92 91 97 98 89 81 74 60 52 52 57 73 94 102 101 100 98 94 96 101 102 101 101 101 102 102 100 99 100 100 100 99 94 83 72 61 45 30 25 23 18 15 16 16 16 17 16 16 16 16
96 94 93 93 89 87 93 96 94 94 94 95 98 98 95 98 100 100 100 100 100 100 101 101 96 91 96 102 95 84 73 62 61 72 85 96 101 100 99 101 100 100 100 101 102 102 100 100 102 102 100 99 100 101 99 90 74 60 52 45 34 25 21 20 19 20 21 21 20 20 20 19 19 19
101 97 93 92 88 83 86 93 95 96 97 98 100 100 99 101 101 99 100 101 100 100 100 100 100 97 98 102 97 87 79 78 85 95 101 101 100 100 101 100 100 101 101 101 101 101 101 101 102 102 100 99 99 98 90 71 50 39 36 31 28 27 25 23 23 24 24 24 23 24 23 22 23 24
100 96 92 91 86 78 79 87 91 95 99 102 102 100 100 100 98 97 99 99 99 100 100 100 100 100 100 101 100 96 93 96 99 101 100 100 100 100 100 100 100 101 101 101 101 101 102 102 102 100 98 94 89 81 67 48 34 31 31 30 31 33 31 29 28 27 27 27 26 26 26 26 27 27
95 90 90 91 86 77 75 82 90 95 98 98 99 98 96 95 94 95 98 99 100 100 100 100 101 101 100 100 100 100 100 100 100 100 100 100 101 100 101 101 100 100 100 100 100 101 101 100 97 93 86 77 67 55 42 32 29 30 32 35 38 39 37 35 32 30 29 29 27 27 27 28 28 29
92 91 92 91 87 79 74 77 83 86 87 90 92 91 89 91 97 99 100 100 100 101 100 100 100 100 100 100 100 100 100 100 100 100 100 100 101 102 101 100 99 100 101 100 99 98 95 88 80 72 63 53 44 36 30 28 30 35 38 39 40 42 42 39 35 32 31 29 28 29 30 31 32 32
76 79 78 75 73 70 67 68 72 76 80 86 88 87 89 95 100 101 100 100 100 100 100 101 100 100 100 100 100 100 100 100 100 100 100 101 101 100 100 100 101 100 98 94 90 85 77 67 57 48 40 34 31 30 31 32 35 40 43 43 41 42 44 42 38 36 34 31 31 32 34 35 35 34
64 59 55 54 55 56 57 60 66 73 81 88 90 92 96 101 101 100 100 101 101 101 101 100 100 100 100 100 100 100 100 100 101 100 100 100 100 101 101 99 97 94 88 80 71 62 53 46 38 32 29 28 29 31 33 35 38 41 43 44 43 43 44 44 42 40 39 37 35 35 36 36 36 35
83 76 70 67 66 66 69 74 81 87 93 97 98 99 101 101 100 101 101 100 101 102 102 101 100 100 100 100 100 100 100 100 100 100 100 101 101 100 97 92 86 79 70 60 51 44 39 35 31 30 31 32 34 36 37 39 41 42 43 44 44 45 46 47 46 45 46 44 41 39 38 37 37 37
94 93 93 92 91 91 93 95 97 99 100 100 100 101 100 100 100 101 100 101 101 101 101 101 100 100 100 100 101 100 100 100 100 100 101 100 96 91 84 76 68 58 49 42 38 35 34 33 33 34 34 35 37 38 39 40 41 42 43 44 44 45 46 46 47 47 47 47 45 42 39 38 39 40
95 95 96 98 99 100 100 100 100 100 100 100 100 100 100 100 100 100 100 100 100 100 100 101 101 101 100 100 100 100 100 101 101 100 96 91 83 74 65 56 48 41 36 33 32 31 32 32 32 32 33 34 35 35 36 38 39 39 40 40 41 42 42 42 43 44 44 45 45 42 40 39 39 41
100 99 99 100 101 101 101 101 101 101 100 101 100 100 100 100 100 100 100 100 100 101 101 101 100 99 100 100 101 101 100 98 94 87 78 70 61 52 44 38 34 32 31 30 30 30 30 29 29 30 30 31 31 31 31 33 34 33 33 34 34 35 35 35 36 37 37 39 39 39 39 38 38 39
99 100 101 101 101 101 101 100 100 100 101 101 100 100 101 101 100 100 100 100 100 100 99 100 101 101 101 99 96 91 85 78 70 61 52 46 39 34 32 31 31 31 31 30 30 29 28 28 28 28 27 28 29 28 28 29 30 31 31 31 31 32 33 33 33 34 35 35 36 37 38 38 38 39
99 100 101 100 100 101 101 101 101 100 100 101 101 101 101 101 100 99 99 99 100 100 99 99 96 91 85 78 72 66 59 52 45 39 34 31 30 30 32 32 32 32 31 31 30 30 30 30 30 29 30 30 29 29 30 30 31 32 33 34 34 34 35 35 34 34 34 34 35 36 36 37 39 39
101 101 100 100 102 102 102 103 103 101 101 102 101 100 99 99 99 100 98 96 94 91 87 82 75 67 61 55 50 45 40 35 32 30 30 31 32 33 33 33 33 34 34 34 34 34 34 34 34 33 33 33 32 32 32 30 30 32 34 35 34 33 33 34 33 32 32 34 35 35 36 37 38 39
103 101 99 100 101 102 102 104 104 103 102 101 98 97 97 97 96 92 86 80 73 67 63 58 52 48 44 40 36 33 31 31 31 32 33 34 35 35 35 36 36 37 37 37 38 37 37 36 36 36 36 36 35 34 33 32 32 30 31 35 40 41 40 38 36 34 33 33 32 31 31 32 32 33
102 100 98 98 99 100 100 101 100 100 100 99 98 97 95 90 83 74 66 59 54 50 46 42 38 35 33 31 30 31 32 33 34 35 36 37 36 36 37 38 38 39 39 39 40 42 42 43 42 42 41 39 38 36 33 32 30 29 33 41 46 44 40 35 31 28 26 24 23 21 20 20 20 19
101 101 99 98 97 98 100 100 99 100 100 99 97 92 84 74 64 56 50 45 41 38 35 32 31 30 31 32 33 35 36 36 37 37 38 37 38 39 39 40 41 41 41 43 46 49 50 49 47 44 41 38 35 33 31 31 33 37 41 42 38 32 30 28 25 24 22 21 21 21 19 18 17 15
100 101 102 100 98 99 100 100 100 100 98 95 88 80 70 61 53 46 42 38 36 35 34 34 35 37 38 38 38 39 39 40 39 40 40 40 41 42 42 42 43 44 46 49 52 52 51 48 44 41 38 35 34 34 37 42 45 43 37 31 26 25 26 26 24 24 24 24 25 25 24 22 20 17
100 100 101 101 100 100 100 100 102 100 95 89 81 72 63 55 49 44 41 40 40 41 41 42 43 43 42 42 41 41 41 42 42 42 43 44 45 46 46 47 49 51 53 55 54 51 48 45 41 38 37 36 38 44 49 49 44 35 28 25 25 26 26 25 24 25 26 26 27 26 25 23 22 20
98 100 100 100 101 101 100 101 101 100 94 87 79 70 61 53 48 45 43 42 43 44 46 47 46 45 44 44 43 43 43 43 44 45 48 50 51 52 53 55 57 59 59 56 53 50 47 44 41 39 39 42 49 55 53 44 35 29 29 30 31 30 29 28 27 27 27 26 25 24 23 22 21 20
Wind_Speed
41 42 41 42 46 49 50 50 50 49 49 50 49 48 46 44 45 46 49 51 52 52 52 51 50 49 48 46 46 45 45 45 45 46 47 47 46 46 47 48 48 49 47 44 43 43 43 43 43 43 43 43 43 43 43 43 43 44 44 44 44 44 44 44 44 44 44 44 44 44 44 44 44 44
39 41 42 41 42 45 48 50 50 49 49 50 50 50 49 47 45 45 47 50 50 50 52 52 52 51 50 49 48 47 47 46 46 47 47 47 47 47 47 48 49 49 48 46 46 45 44 43 43 42 43 43 43 43 43 44 44 44 44 44 44 45 45 45 45 45 45 45 45 45 45 44 44 44
38 39 41 42 42 43 45 47 48 48 48 49 50 51 51 50 48 45 45 49 50 49 50 51 52 52 51 50 49 49 49 48 48 48 48 48 48 48 48 49 49 49 49 49 49 47 45 44 43 43 42 42 42 43 44 44 44 45 45 45 45 45 45 45 45 45 45 45 45 45 45 45 44 44
35 37 38 40 41 42 43 44 45 45 46 47 48 50 51 51 50 47 45 46 49 50 49 49 50 51 51 50 50 51 51 50 50 49 49 49 49 49 50 50 50 49 49 49 49 48 46 45 44 43 43 42 42 42 43 44 45 45 45 45 45 45 45 45 45 45 45 45 46 46 46 46 45 45
33 34 36 38 39 40 42 43 43 44 44 44 45 46 48 50 51 50 48 47 48 49 50 50 50 50 50 50 50 50 51 51 51 51 51 51 51 51 51 50 50 49 48 48 48 48 46 46 45 44 44 43 42 42 43 44 44 45 46 46 46 46 46 46 46 46 46 46 46 46 46 46 47 47
33 33 35 37 37 38 40 41 42 43 43 42 42 42 43 45 47 48 49 49 48 48 49 50 51 51 50 50 50 50 50 50 50 50 51 51 51 52 52 51 50 50 49 48 49 49 48 47 47 46 46 46 45 44 44 44 44 45 46 47 47 46 46 46 47 47 47 47 47 47 47 48 48 48
36 35 35 36 36 36 38 39 41 42 43 42 42 41 41 41 42 43 45 46 48 48 48 48 49 50 51 51 50 49 49 48 48 48 49 50 50 51 52 52 52 51 51 50 50 51 50 50 50 49 49 49 48 47 45 44 44 45 46 47 47 47 47 47 47 48 48 48 48 48 48 49 49 49
39 38 37 36 35 35 36 38 39 41 42 43 43 42 42 41 41 41 41 41 42 43 45 46 47 47 48 50 50 49 48 47 47 48 48 49 49 50 50 51 52 53 53 52 51 51 52 51 52 52 52 52 52 51 49 46 45 45 46 47 48 48 47 48 48 49 49 49 50 50 50 50 50 50
38 39 39 38 36 35 35 36 38 39 40 42 43 43 42 42 41 41 41 40 39 39 41 43 44 44 45 47 49 49 48 47 47 48 49 49 49 49 49 50 51 53 54 54 53 53 52 52 52 52 52 53 54 54 52 50 47 46 45 46 48 49 48 49 49 49 50 50 50 50 50 51 51 51
35 37 39 40 39 37 36 35 36 38 39 40 42 42 42 42 42 42 41 41 39 39 40 40 40 41 42 44 46 47 48 48 47 46 48 49 49 49 49 49 51 52 53 54 54 54 52 52 51 51 52 52 53 54 54 53 51 48 46 46 47 49 49 49 50 50 50 50 50 50 50 51 51 52
32 34 37 39 41 40 38 36 35 36 37 38 40 41 42 42 43 44 44 43 43 42 42 41 40 39 40 41 42 44 45 47 47 46 46 48 49 50 50 50 50 50 51 52 53 53 52 51 51 51 52 52 52 53 53 53 52 50 49 47 47 48 49 50 50 50 50 50 50 50 50 51 51 52
28 31 33 36 38 40 40 39 37 36 36 37 38 40 41 42 43 44 45 45 46 46 45 45 43 41 40 40 41 42 44 46 47 47 47 48 48 48 48 49 49 48 48 49 51 52 53 53 52 52 52 52 52 52 51 51 51 51 50 50 49 48 49 49 50 50 50 50 50 50 50 50 50 51
26 27 30 32 35 37 39 40 39 38 37 36 36 37 39 41 42 43 44 45 46 47 47 47 46 44 43 42 41 42 43 44 45 47 48 48 47 46 46 47 47 48 48 49 50 51 53 54 55 53 52 51 51 51 51 50 50 50 50 50 50 50 50 49 49 49 49 49 49 49 49 50 50 51
25 25 26 28 30 32 36 38 40 40 39 39 37 36 36 38 40 41 43 44 45 46 47 48 48 48 47 45 44 43 41 40 42 45 47 47 47 47 47 46 47 48 49 49 50 50 52 53 54 54 52 51 51 51 51 51 50 49 49 50 50 50 50 49 49 48 48 48 48 49 50 50 51 52
25 25 25 25 26 28 30 32 34 36 37 37 37 36 35 36 37 39 41 42 43 44 46 47 48 49 48 47 45 44 41 40 42 44 46 47 48 49 49 48 47 47 48 49 50 50 50 51 50 50 51 52 52 52 52 51 50 50 50 50 50 50 49 49 49 48 48 49 49 50 51 52 52 53
27 27 27 27 27 28 28 29 30 31 32 32 33 33 34 34 34 35 37 39 41 42 44 45 47 48 48 47 47 45 43 42 41 42 44 46 48 48 49 48 48 47 46 47 49 50 49 49 48 48 50 52 52 53 52 52 52 51 51 50 50 49 49 49 49 49 49 49 50 51 52 53 53 53
30 29 29 30 30 30 29 29 30 30 30 31 31 32 32 33 33 33 34 36 38 39 41 43 45 45 45 46 46 44 43 42 41 41 41 43 44 46 47 47 46 46 46 46 48 50 50 49 48 49 50 51 51 52 52 53 53 52 52 51 50 50 49 49 49 49 49 50 51 52 52 53 53 53
31 31 31 31 31 31 31 31 30 30 30 30 31 31 32 32 33 33 34 34 35 37 39 41 41 41 42 42 42 42 41 41 41 40 39 39 40 42 43 44 45 46 46 46 47 49 49 49 49 50 50 50 50 51 52 52 52 52 51 51 50 49 49 49 48 49 49 50 51 51 52 52 52 52
33 32 32 33 32 31 31 30 30 29 29 29 30 30 31 32 32 33 33 34 34 36 37 38 38 38 38 39 39 40 40 40 39 39 38 38 39 40 41 42 44 45 46 46 47 48 49 49 50 50 50 50 51 52 52 52 52 51 51 50 49 49 48 48 48 48 49 50 50 51 51 51 52 52
37 35 33 33 32 31 31 30 28 28 28 28 29 30 30 31 32 33 32 32 33 34 35 36 36 36 36 36 37 38 38 38 38 39 40 40 40 41 41 42 43 44 45 46 46 48 48 48 49 50 50 51 51 51 51 51 51 50 50 50 49 48 47 47 48 49 49 50 50 50 50 51 52 53
38 37 35 33 32 31 30 28 28 28 28 28 27 28 28 29 30 31 31 31 32 33 34 34 34 35 35 36 36 37 37 37 38 40 41 42 41 41 41 42 42 42 43 44 45 48 49 49 50 50 50 50 50 50 50 50 49 49 49 48 47 47 47 48 48 49 49 49 49 49 50 51 52 52
39 38 36 33 32 32 29 27 27 28 27 26 27 26 26 26 28 28 27 27 29 30 32 34 35 35 36 36 37 38 38 39 39 40 41 41 41 42 42 41 40 40 40 42 44 48 50 51 50 50 49 49 49 49 50 49 49 48 47 47 46 46 47 47 47 47 47 47 48 48 49 50 51 52
37 39 38 35 33 33 30 27 26 26 24 24 25 24 24 26 28 27 25 24 25 25 27 31 35 36 37 38 39 40 40 40 40 41 42 41 41 41 41 41 40 39 40 41 44 47 49 51 51 50 49 48 48 48 49 48 47 46 45 45 45 45 46 46 46 46 46 46 47 47 48 49 50 51
32 36 38 37 34 32 30 27 26 26 25 25 25 25 26 26 26 26 26 27 26 24 24 26 30 34 37 38 39 40 40 40 40 40 40 40 39 39 40 40 40 39 39 40 42 45 47 50 51 50 48 48 47 47 48 47 46 44 43 42 42 43 44 44 44 44 44 45 45 46 47 48 49 51
28 31 35 37 36 33 31 28 26 26 26 27 28 28 27 25 23 24 27 29 29 27 26 27 29 32 35 38 38 38 38 38 37 36 35 35 36 37 39 40 39 38 38 39 41 44 47 48 49 49 47 47 46 45 45 44 42 40 40 40 40 41 42 43 43 43 43 43 44 45 46 47 49 51
22 27 31 34 35 35 33 30 27 26 27 28 29 28 26 25 24 24 26 29 31 32 31 31 31 32 34 36 37 37 37 36 34 32 33 34 35 37 39 39 38 37 37 39 41 43 45 46 47 46 46 46 45 44 42 39 36 36 37 38 39 40 41 42 42 42 42 42 43 44 46 47 48 49
19 22 26 26 30 37 36 32 29 28 27 28 28 26 24 24 24 24 24 27 29 31 32 32 32 32 32 33 35 36 35 33 31 31 33 35 37 38 38 38 37 36 37 39 40 41 42 43 43 43 44 43 43 42 39 34 33 34 36 36 37 39 41 41 42 41 42 42 43 44 45 46 47 48
16 17 19 19 26 37 38 33 31 30 28 27 26 24 24 25 25 24 25 27 28 31 33 33 33 32 31 31 32 32 32 31 32 33 35 36 37 37 36 35 35 35 36 37 38 38 39 40 41 41 41 40 39 37 35 32 31 33 35 36 37 39 41 41 42 42 42 42 43 43 44 45 45 46
10 12 15 16 23 33 38 35 32 30 29 28 26 26 27 28 27 26 27 29 31 33 34 34 33 32 31 30 30 31 31 33 34 35 35 35 35 34 33 33 33 33 33 34 35 35 36 37 38 38 37 36 34 33 33 32 32 33 35 37 37 38 40 41 41 41 41 42 42 42 43 43 44 44
8 11 15 17 22 30 35 36 33 30 28 28 28 28 29 28 27 27 28 29 30 30 30 30 30 29 29 30 31 31 32 33 34 34 33 33 32 31 31 31 31 31 31 32 32 32 33 33 33 33 32 32 32 32 33 33 33 32 34 36 37 37 37 39 40 40 40 40 40 40 40 40 41 41
9 13 16 20 24 29 33 34 32 29 27 27 28 28 27 27 27 27 27 26 26 25 25 24 24 25 26 28 29 30 31 31 31 31 30 30 30 30 30 29 29 29 29 29 29 29 29 29 29 29 30 31 31 32 33 34 33 31 32 34 35 35 35 36 38 38 39 39 39 38 38 38 38 38
7 9 12 17 21 25 28 29 28 26 25 26 26 26 25 25 26 26 25 25 25 25 23 22 22 23 25 27 28 29 29 29 28 28 28 28 28 28 27 27 26 26 26 26 27 26 26 27 28 28 29 30 31 31 32 32 32 31 31 32 34 35 34 35 36 36 37 38 38 37 37 37 37 38
6 6 8 11 14 18 20 21 22 22 23 23 22 22 22 22 23 23 24 24 24 23 22 21 22 24 25 26 28 28 28 27 26 26 26 26 26 25 25 24 24 24 25 25 25 25 25 26 27 28 29 30 30 30 31 31 31 31 32 32 33 34 34 35 36 36 36 38 38 39 38 38 38 40
6 7 8 10 12 14 16 18 18 19 19 18 18 18 19 20 21 22 23 23 22 20 20 20 21 22 23 24 25 24 24 24 23 23 24 23 23 22 22 22 23 23 24 24 24 24 24 25 26 26 27 28 28 29 31 31 31 31 33 34 34 35 35 35 37 38 38 39 41 42 42 41 40 42
5 7 9 11 13 15 16 17 18 18 17 17 17 17 18 18 18 19 19 18 18 19 19 20 20 21 21 21 21 21 21 21 21 21 20 20 20 20 21 22 22 22 22 22 22 22 23 23 24 25 26 27 27 28 30 32 32 32 34 35 36 36 36 37 38 40 40 42 44 46 47 46 44 44
8 9 10 12 13 15 16 17 17 17 17 17 17 16 16 15 15 15 15 15 16 17 18 18 18 18 18 18 19 19 19 19 19 19 18 19 20 20 21 21 20 20 20 20 20 21 22 22 23 24 25 27 27 27 28 31 33 33 34 36 36 37 38 39 40 42 43 44 46 49 51 51 49 47
9 10 11 12 13 14 15 15 16 16 16 16 16 15 13 13 13 13 14 14 15 15 15 15 15 15 16 17 18 18 18 18 18 18 19 19 20 19 19 18 18 17 18 18 19 20 21 22 23 24 25 27 28 27 27 28 30 33 36 38 37 38 40 41 42 43 44 45 47 49 52 54 52 50
6 7 8 9 10 10 11 12 13 13 13 13 13 12 12 12 12 12 13 13 14 14 15 15 16 16 17 17 17 17 17 17 18 18 19 18 18 17 16 16 16 16 17 17 18 19 20 22 23 25 26 28 29 29 29 28 28 30 35 40 40 39 40 42 43 44 45 46 48 49 51 54 54 53
3 3 3 4 5 6 7 8 9 9 9 10 11 11 11 12 12 12 13 13 14 14 15 15 16 16 16 17 17 17 17 17 18 17 17 16 15 15 15 15 15 16 16 17 18 19 21 23 24 26 28 29 31 32 33 32 29 29 32 37 40 41 41 42 44 45 45 46 48 49 51 53 54 54
2 2 3 3 4 5 7 8 8 9 10 10 11 11 11 11 11 12 13 13 13 13 14 14 14 15 15 15 15 16 16 16 16 15 15 15 14 15 15 15 15 16 16 17 19 21 23 25 26 28 30 31 33 34 35 35 33 31 31 34 37 40 42 43 44 46 46 46 48 50 52 54 55 56
2 1 2 3 4 5 7 8 9 10 11 11 11 11 11 11 12 12 12 12 12 12 13 13 13 13 13 14 15 15 15 14 14 13 14 14 15 15 15 15 16 17 17 18 20 23 25 27 29 30 32 33 35 37 37 37 36 34 32 32 34 36 39 41 43 45 47 47 48 51 53 54 56 57
3 1 1 3 4 4 5 7 8 9 10 11 11 11 11 12 12 12 11 11 11 11 11 12 12 13 14 14 14 14 13 13 13 14 14 15 15 16 16 17 18 19 19 20 22 25 27 29 31 33 34 35 37 38 38 37 37 36 34 33 33 33 35 37 39 42 44 46 48 51 52 54 56 56
5 3 0 2 4 4 5 5 6 6 8 9 9 10 10 10 10 10 10 9 10 10 11 12 12 13 14 14 13 13 13 13 14 14 15 15 16 17 18 19 20 21 22 23 24 27 29 31 33 35 35 35 36 37 37 37 37 37 36 34 33 33 34 36 37 39 41 43 45 48 51 53 55 56
4 3 1 1 3 4 4 4 4 5 6 7 8 8 9 9 10 10 10 10 10 11 11 12 12 12 13 13 12 12 12 13 14 15 16 17 18 19 20 21 23 24 25 26 28 29 31 33 34 35 35 35 35 37 37 38 37 37 36 35 35 36 37 38 39 39 39 40 41 44 46 49 53 56
3 2 0 1 2 3 4 4 5 5 6 7 7 8 9 10 10 10 10 10 11 11 11 11 11 12 12 12 12 12 14 15 16 17 18 19 20 21 23 24 26 27 28 30 31 32 33 34 34 35 35 35 35 36 38 38 37 36 36 37 38 39 40 41 41 42 41 40 40 41 43 45 48 52
Wind_Direction
237 237 239 241 243 244 243 243 243 242 242 243 242 240 239 240 243 244 245 244 242 242 242 242 241 242 242 243 244 243 242 241 241 242 243 243 240 238 237 238 239 241 239 236 235 237 238 239 240 240 241 241 242 243 243 243 243 243 243 243 243 244 244 245 245 246 247 248 248 248 248 248 247 248
240 239 238 239 240 242 242 243 243 242 242 242 242 242 241 240 240 242 244 244 241 241 243 243 244 244 244 245 245 245 244 242 241 241 242 242 241 238 237 238 239 242 241 237 235 235 235 237 239 239 240 241 242 242 243 243 243 243 243 243 243 244 244 245 246 246 247 247 248 248 248 248 248 248
244 244 244 242 241 241 241 242 243 243 242 242 242 243 244 244 243 242 243 244 242 241 241 241 243 245 246 245 244 244 243 242 241 241 241 242 240 238 237 237 239 241 240 238 236 235 234 235 237 238 239 240 241 242 243 243 243 243 243 244 244 244 244 245 245 246 247 247 247 248 248 248 249 249
244 245 246 246 245 243 243 242 243 243 243 243 243 243 244 246 247 246 245 245 244 243 243 242 242 243 245 245 244 243 242 241 240 240 240 241 240 238 237 238 239 241 241 239 237 236 235 234 236 237 238 239 240 241 242 243 243 243 243 244 244 244 244 245 245 246 246 246 247 248 248 249 250 250
244 246 247 247 245 245 244 243 243 243 243 243 243 243 244 245 246 247 248 248 246 245 245 244 244 243 243 244 244 243 242 241 240 239 239 239 240 240 239 238 239 241 241 240 238 237 237 236 236 238 238 238 239 240 241 242 243 243 244 244 244 245 245 245 246 246 246 246 247 247 248 249 250 251
240 243 247 248 246 245 245 244 243 242 242 241 241 241 243 244 245 246 247 248 247 247 246 244 244 244 244 244 244 245 244 243 241 239 238 238 239 240 240 238 238 239 240 240 240 239 239 239 240 240 240 239 239 240 241 242 243 243 244 244 245 245 246 246 247 247 247 247 247 248 249 249 250 251
238 238 241 245 245 244 244 243 243 242 241 240 239 238 239 241 242 243 244 246 246 246 246 245 243 243 243 244 244 245 246 245 244 241 238 237 237 238 239 239 238 238 238 239 240 241 241 242 242 243 243 242 241 241 241 242 243 243 244 244 245 246 246 247 247 247 248 248 248 249 250 250 251 252
240 238 237 240 242 243 243 243 242 242 241 240 238 237 237 237 238 239 241 242 243 244 245 245 244 243 243 242 243 244 245 245 245 243 240 238 237 237 237 238 238 238 238 239 239 241 242 243 244 244 245 244 244 243 243 243 244 244 244 244 244 245 246 247 247 248 248 248 249 250 251 252 252 253
242 240 238 239 239 239 242 244 243 242 242 241 239 237 235 235 235 236 238 239 240 241 243 244 244 245 244 243 242 242 243 244 244 244 242 239 238 237 237 237 237 238 238 239 240 241 242 242 243 244 246 246 246 245 245 245 245 245 245 245 245 245 245 246 247 247 248 249 249 250 251 252 253 254
244 243 241 239 238 237 238 242 245 244 242 241 240 238 236 235 234 234 236 237 238 239 241 243 242 243 245 245 244 243 244 245 245 245 244 242 240 240 239 239 238 238 239 240 240 241 241 242 243 244 245 246 247 247 246 246 246 246 246 246 246 245 245 246 246 247 248 248 249 250 251 252 253 254
244 244 243 240 239 238 236 236 241 245 245 242 241 239 237 235 234 234 234 236 237 238 240 241 241 241 242 244 244 244 244 245 246 246 246 244 242 241 241 241 241 240 241 241 240 240 241 242 243 244 245 245 246 246 246 246 246 247 247 247 247 246 245 245 246 247 247 248 249 250 251 252 253 254
248 245 244 242 240 238 237 236 237 241 244 245 242 239 238 236 235 235 235 235 236 238 239 240 241 241 241 242 243 243 243 244 246 247 247 247 245 244 244 243 243 242 243 243 242 241 241 242 242 243 245 245 245 245 246 245 245 246 247 248 248 247 246 246 246 246 247 248 249 250 251 252 253 254
253 249 245 244 242 239 238 238 239 239 241 243 244 242 239 238 236 236 235 236 237 237 239 240 241 240 240 240 242 242 243 245 247 248 249 249 249 248 247 246 245 244 244 244 243 242 242 243 243 242 243 245 245 245 246 246 246 246 247 247 248 248 247 246 246 246 247 248 249 251 252 253 255 255
253 251 248 247 246 243 241 239 240 241 242 243 244 244 242 240 238 237 237 237 237 238 239 240 240 240 239 239 241 243 245 246 246 246 247 248 249 249 248 246 245 245 245 244 244 243 243 244 244 243 243 244 245 245 246 246 247 247 247 247 247 247 247 246 246 247 248 249 250 251 253 254 256 256
252 250 249 248 246 245 244 241 240 240 241 242 243 244 243 242 240 239 239 238 238 239 240 241 241 241 240 239 240 242 243 243 244 245 245 246 247 248 248 247 246 246 246 245 245 244 243 244 245 245 244 244 244 246 246 247 246 246 246 246 247 246 246 246 246 247 248 249 251 253 254 256 257 258
252 249 247 247 245 245 244 243 241 240 240 241 241 242 244 244 244 243 242 241 240 240 241 242 243 243 242 240 240 241 242 243 244 245 245 246 247 248 248 248 248 247 246 246 245 244 243 244 245 245 245 244 245 245 246 247 246 246 245 246 246 246 246 247 247 248 250 251 253 255 257 258 259 259
253 250 248 246 245 244 244 242 241 241 241 241 241 242 243 245 247 247 245 244 243 242 243 244 244 245 244 244 243 243 244 245 246 246 246 247 248 249 249 250 250 250 248 246 244 243 243 243 244 244 245 245 245 245 245 246 246 246 246 246 246 247 248 249 249 251 252 254 255 257 258 259 259 259
256 253 251 249 247 245 244 242 240 240 240 241 242 243 245 246 248 249 248 247 245 244 244 245 246 246 246 246 245 245 245 246 246 246 247 248 250 250 250 251 252 251 250 248 245 243 241 242 242 243 244 245 246 245 244 245 245 246 246 247 247 248 248 250 251 253 254 256 257 258 258 259 259 259
257 254 252 251 249 246 244 242 240 239 239 240 242 244 246 248 249 250 250 249 248 246 245 246 247 247 246 245 245 244 245 245 245 245 244 245 247 248 248 249 250 250 249 248 246 243 240 240 241 242 243 244 244 244 243 244 245 245 246 246 247 248 248 250 252 254 256 257 258 258 259 259 259 259
257 255 254 252 250 247 244 242 240 238 236 237 240 243 244 246 248 250 251 251 251 249 247 246 245 245 244 244 243 243 243 243 243 242 243 243 244 245 247 248 249 251 250 249 248 244 241 239 239 240 241 243 244 243 243 243 243 244 244 245 246 247 249 251 253 255 256 257 258 259 259 259 259 260
254 252 252 253 252 249 245 241 237 234 232 232 235 240 243 245 247 249 250 250 250 249 249 248 245 244 242 241 241 242 242 241 241 241 243 244 245 246 247 250 251 253 253 252 251 248 244 241 239 239 240 242 244 244 243 243 243 242 243 244 245 247 249 251 252 254 255 257 257 258 259 260 260 261
250 248 247 247 248 249 246 241 236 233 231 230 231 234 240 246 250 252 250 249 249 249 248 248 246 244 242 239 238 239 240 241 241 242 243 244 244 245 247 249 251 252 253 252 250 248 246 243 241 239 239 241 242 243 243 243 243 242 242 243 244 246 248 250 252 253 254 256 257 258 259 261 262 263
247 246 243 240 239 241 241 239 237 234 233 235 236 239 242 247 251 253 251 250 252 252 251 249 246 244 242 240 238 238 239 241 241 242 243 243 243 244 246 247 249 250 251 250 250 249 247 245 242 240 238 238 239 241 242 242 241 241 241 243 245 247 249 250 251 253 254 255 257 258 260 262 263 264
249 244 240 236 233 233 234 235 236 236 235 239 243 244 244 244 246 248 248 249 254 260 262 260 253 246 242 241 240 239 240 241 242 244 244 243 243 244 245 246 247 249 250 250 250 249 248 245 243 241 239 238 237 237 239 240 240 240 241 243 245 247 248 250 251 252 254 255 257 259 261 263 264 265
252 245 239 233 226 225 228 231 233 235 235 239 242 242 243 245 246 244 243 244 249 252 253 257 261 254 245 241 242 241 242 243 245 246 246 245 244 245 245 245 245 246 248 248 248 248 247 245 243 242 240 238 236 235 236 238 240 242 242 243 245 247 248 250 251 252 254 256 258 259 261 262 264 265
254 246 240 233 222 218 223 227 228 231 234 237 241 241 242 245 244 240 238 239 241 242 242 249 259 258 247 240 239 241 242 243 243 245 246 247 247 246 245 243 243 244 245 245 246 246 246 245 243 242 240 238 236 235 235 236 239 241 242 243 245 247 248 250 251 252 254 255 256 258 260 261 263 264
253 244 238 232 217 211 216 222 224 227 230 233 239 242 241 241 241 239 241 242 243 244 245 250 257 257 248 240 237 239 241 242 243 245 246 245 245 245 243 241 241 242 243 243 244 245 246 245 243 241 239 237 236 236 236 235 235 239 242 243 244 246 248 249 250 250 252 253 254 256 258 260 262 263
244 233 224 222 211 205 209 215 220 225 229 232 237 242 242 244 246 246 249 252 252 250 248 249 253 255 252 245 241 242 243 244 244 243 242 242 242 243 242 241 240 241 242 243 244 244 244 244 243 240 239 237 237 238 239 237 235 237 241 242 243 245 246 247 248 248 249 251 253 255 257 258 260 262
221 209 205 207 202 200 204 211 217 223 228 231 236 242 245 248 251 252 253 253 252 250 248 248 250 252 250 246 244 244 243 242 241 240 240 240 241 241 241 240 240 241 242 243 243 243 242 241 240 239 238 239 240 241 242 241 238 238 239 240 241 243 246 247 248 248 250 251 253 255 257 258 260 263
174 183 189 189 188 193 201 209 215 221 227 232 237 242 246 250 252 253 253 251 249 248 248 248 247 246 244 242 241 240 238 237 237 238 239 239 240 239 239 238 239 240 240 241 241 239 238 238 238 239 240 241 243 244 245 244 241 239 239 240 239 240 244 247 249 250 252 253 254 256 258 260 262 265
147 163 171 175 180 190 200 208 215 222 229 236 242 246 251 255 256 254 253 250 247 245 245 244 244 241 239 237 236 235 234 234 235 237 237 237 238 238 238 238 238 238 237 236 235 234 234 236 237 240 242 243 245 246 246 246 245 243 243 244 243 242 244 247 249 252 253 254 254 256 259 262 265 268
124 150 163 172 183 194 202 210 218 227 236 244 250 255 257 258 256 255 253 250 248 246 242 237 234 233 232 231 230 230 231 231 232 233 234 235 236 236 236 235 234 234 233 233 233 232 234 236 238 241 243 245 247 248 248 249 250 250 249 250 250 251 251 251 252 253 255 256 258 260 262 265 268 270
122 146 167 180 192 200 209 218 227 238 246 250 253 254 252 250 249 249 249 248 247 246 241 233 227 225 226 226 227 227 228 228 228 230 231 232 232 232 231 231 231 232 233 233 234 235 235 237 239 241 244 246 249 251 252 254 256 258 257 256 257 258 259 260 260 260 261 262 263 263 264 266 268 271
157 171 185 196 205 212 220 229 235 241 244 244 243 242 241 241 241 242 244 244 242 238 233 226 222 221 222 223 225 225 225 226 227 228 228 228 226 226 227 229 231 233 234 235 236 238 240 242 243 245 248 250 253 256 258 259 261 263 263 263 264 264 265 266 267 267 268 268 268 267 265 265 267 270
208 209 211 215 219 223 228 233 236 237 236 233 232 233 233 234 237 238 238 237 232 226 221 217 215 216 218 219 221 222 222 223 224 224 223 223 224 225 228 230 232 234 236 238 240 243 246 248 250 251 254 255 257 261 264 265 265 267 268 269 270 270 271 272 272 273 274 274 274 273 270 268 268 270
243 243 242 242 241 241 242 242 243 242 239 234 230 227 227 229 232 231 229 225 222 219 216 214 214 214 215 215 215 216 217 217 217 218 220 222 225 226 228 230 232 236 240 244 247 250 252 255 256 258 260 261 262 264 268 271 273 274 274 274 275 276 276 276 276 276 277 276 277 277 276 274 273 274
248 247 251 253 253 252 252 250 247 244 239 234 228 223 222 225 225 223 219 216 214 213 210 209 208 208 209 210 211 211 212 213 214 218 220 222 224 225 228 231 235 240 245 249 253 256 259 261 263 264 266 267 267 268 269 272 276 280 279 278 278 278 278 278 277 277 278 278 278 278 278 278 277 277
248 242 247 251 251 253 254 251 246 240 233 227 219 213 213 216 216 215 212 209 209 208 205 203 202 201 202 205 207 209 211 213 216 218 220 221 224 227 230 235 239 243 247 252 256 260 263 266 268 269 270 271 272 272 270 270 273 278 281 281 280 280 280 280 280 279 278 278 278 278 278 279 279 279
252 229 221 229 235 237 240 242 236 225 213 206 202 202 205 207 206 206 204 201 199 199 198 198 198 199 201 204 207 209 212 214 216 218 220 223 226 229 232 236 239 243 249 255 260 264 267 269 272 274 275 276 277 277 276 274 273 275 279 281 283 283 282 282 281 280 280 280 280 279 279 280 280 280
288 213 180 184 198 206 210 214 211 203 197 195 197 200 203 201 198 196 196 194 192 193 195 197 200 202 205 207 209 211 212 214 217 219 222 225 228 230 233 238 242 247 253 260 266 270 273 275 277 279 281 282 283 283 282 282 280 279 279 281 284 286 286 286 286 285 284 285 285 284 283 282 281 280
348 260 193 182 183 191 197 198 196 195 195 196 198 200 198 195 194 194 194 193 193 195 200 203 205 206 209 211 212 212 214 217 220 223 226 228 231 234 239 243 249 254 259 265 271 276 279 282 284 285 286 287 287 286 285 285 284 283 282 283 285 287 288 289 290 291 291 292 291 290 289 288 286 284
24 352 215 183 170 176 189 193 192 193 194 195 196 196 194 194 196 197 197 199 201 203 206 208 208 209 212 213 214 214 216 220 224 227 231 234 238 242 247 252 258 262 266 270 275 279 282 285 287 288 288 288 288 287 287 286 286 285 285 285 284 285 287 288 290 292 293 295 295 295 293 292 291 290
32 20 359 180 170 172 184 193 195 196 196 195 196 196 195 198 200 199 199 204 208 209 210 210 211 212 214 216 217 218 220 225 230 234 240 244 248 253 257 261 265 269 272 276 279 282 285 287 287 288 289 289 288 288 288 288 289 289 288 286 284 283 284 286 287 289 291 293 295 295 295 296 296 296
39 33 30 189 184 184 191 201 205 206 204 202 202 201 201 202 204 204 204 207 210 212 213 214 215 217 220 223 225 226 230 235 240 244 250 255 258 262 266 269 272 275 278 281 283 284 286 287 288 288 289 289 289 290 290 290 290 290 288 287 286 286 285 285 286 287 289 291 293 294 295 297 297 297
26 32 16 230 211 206 207 209 212 214 215 214 214 213 209 208 210 213 214 216 219 223 225 226 227 230 232 235 237 238 241 246 250 254 259 263 266 269 273 275 278 281 284 285 286 286 287 288 288 289 290 290 291 292 291 291 290 289 289 289 290 290 289 289 289 289 289 290 292 294 295 296 296 295